Location: Molveno
(46.1500°N, 10.9667°E)
Time: 06:57:04
(UTC+00:00)

Cosmos 1328 - Pass Details

Date: 05 July 2020
Orbit: 538 x 546 km, 82.5° (Epoch: 05 August)

Event Time Altitude Azimuth Distance (km) Brightness Sun altitude
Exits shadow 20:01:44 - 169° (S) 2,198 6.4 -7.7°
Reaches altitude 10° 20:02:43 10° 166° (SSE) 1,804 5.9 -7.9°
Maximum altitude 20:06:30 44° 94° (E) 753 4.2 -8.3°
Drops below altitude 10° 20:10:18 10° 21° (NNE) 1,814 6.8 -8.8°
Sets 20:12:32 0° 15° (NNE) 2,711 7.8 -9.0°
